Location: Fontevrault
(47.1823°N, 0.0493°E)
Time: 10:19:21
(UTC+00:00)

GEOS 3 Rocket - Pass Details

Date: 16 June 2021
Orbit: 780 x 839 km, 115.0° (Epoch: 03 August)

Event Time Altitude Azimuth Distance (km) Brightness Sun altitude
Exits shadow 22:36:03 26° 140° (SE) 1,602 4.6 -16.9°
Maximum altitude 22:39:13 89° 226° (SW) 845 3.6 -17.1°
Drops below altitude 10° 22:44:35 10° 321° (NW) 2,452 7.2 -17.4°
Sets 22:46:54 0° 321° (NW) 3,383 8.1 -17.5°
